OBJECT F, 68203

Orbit data source: Space-Track

You're viewing an Uncataloged Satellite

Recently launched and/or uncataloged satellites may have evolving metadata. Metadata may include but not limited to: Owner, Maufacturer, Bus, Motor, and Mission.

OBJECT F, 68203 is a Chinese satellite in SSO that was launched on Mon, 16 Mar 2026 UTC via a KUAIZHOU-11 launch vehicle from the Jiuquan Satellite Launch Center, China (JSC). Unknown objects in Earth's orbit typically refer to objects detected orbiting the Earth but have not yet been identified or cataloged. These objects could be anything from previously untracked satellites, spent rocket stages, debris from satellite collisions, or even natural meteoroids temporarily captured by Earth's gravity.

Loading next visibility...
Identifier
68203, 2026-052F
Orbit
SSO
Country
Flag of CNCN / PRC
Related business
None
Manufacturer
Unknown
Mission
Operational spacecraft
Bus & Motor
Unknown
Mass
Unknown
Launch date (UTC)
2026-03-16 (3 months ago)
Launch vehicle
KUAIZHOU-11
Launch site
Jiuquan Satellite Launch Center, China (JSC)
Object type
Unknown
Shape & HBR
Unknown shape, 0.3 m
Radar Cross Section
Medium (>0.1 m² and <1 m²)

Expand to show TLE details & history
Last TLE update: 18 hours ago

TLE from 18 hours ago
0 OBJECT F
1 68203U 26052F   26171.10076159  .00004788  00000-0  28479-3 0  9990
2 68203  97.5315 245.9350 0009036 298.7735  61.2587 15.11693694 14490
Epoch: 2026-06-20T02:25Z
TLE epoch observation values (Epoch: 2026-06-20T02:25:05.801Z)
Latitude
-0.00004°
Longitude
-58.65939°
Altitude
531.112 km
Speed
7.599 km/s
True Right ascension
16h 23m 44s
True Declination
0° 00' 00"
Sunlit
Object was in full shadow at epoch
Visualization orbit readout
Latitude
Unknown
Longitude
Unknown
Altitude
Unknown
Speed
Unknown
Apparent Right ascension
Unknown
Apparent Declination
Unknown
Sunlit
N/A
Visualization observer readout
Local Sidereal Time
07:22:05
Azimuth
Unknown
Elevation
Unknown
Doppler factor
Unknown
Orbital elements
Apogee altitude
534.257 km
Perigee altitude
521.776 km
Semi-major axis
6,906.154 km
Eccentricity
0.0009
Inclination
97.5315°
RAAN
245.935°
Arg. of periapsis
298.7735°
True anomaly
61.34954°
Mean anomaly
61.2587°
Eccentric anomaly
61.30411°
Mean motion
3.78172 °/min
Orbital period
95.19 mins
BSTAR
0.00028479
Loading maneuver chart data...
Computing Atmospheric mass density...
Loading historical data...
Loading historical data...
Loading historical data...
Loading historical data...
Loading historical data...
Loading historical data...
Loading historical data...

Documentation

Showing up to 5 results
|